Location: Devore Heights
(34.2372°N, 117.4156°W)
Time: 01:31:44
(UTC+00:00)

Altair - Pass Details

Date: 15 September 2024
Orbit: 1501 x 1682 km, 47.2° (Epoch: 09 October)

Event Time Altitude Azimuth Distance (km) Brightness Sun altitude
Exits shadow 09:41:09 58° 67° (ENE) 1,895 7.9 -44.0°
Drops below altitude 10° 09:48:53 10° 56° (NE) 3,945 10.2 -42.9°
Sets 09:52:04 0° 55° (NE) 4,938 11.0 -42.4°
